Regional Weather Roundup
Issued by NWS

Home | Current Version | Previous Version | Graphics & Text | Print | Product List | Glossary On
Versions: 1 2 3 4 5 6 7 8 9 10 11 12 13 14 15 16 17 18 19 20 21 22 23 24 25 26 27 28 29 30 31 32 33 34 35 36 37 38 39 40 41 42 43 44 45 46 47 48 49 50
000
ASUS43 KIND 072059
RWRIN

WEATHER ROUNDUP FOR INDIANA
NATIONAL WEATHER SERVICE INDIANAPOLIS IN
400 PM EST WED DEC 07 2016

NOTE: "FAIR" INDICATES FEW OR NO CLOUDS BELOW 12,000 FEET WITH NO
SIGNIFICANT WEATHER AND/OR OBSTRUCTIONS TO VISIBILITY.

* - STATION DOES NOT REPORT WEATHER SUCH AS PRECIPITATION OR FOG.

+ - STATION NOT QUALITY CONTROLLED BY THE NATIONAL WEATHER SERVICE.
    USE DATA WITH CAUTION...ESPECIALLY DEWPOINT AND RELATIVE
    HUMIDITY OBSERVATIONS.

INZ001>003-010>013-019-020-072200-
NORTHWEST INDIANA

CITY           SKY/WX    TMP DP  RH WIND       PRES   REMARKS
GARY /AIRPORT/ CLOUDY    30  21  69 MISG      30.11

$$

LMZ046-743>745-072200-
SOUTHERN LAKE MICHIGAN

STATION/POSITION TIME  TEMP    WIND        PRES    WAVE
                       AIR SEA DIR/SP/G            HT
                 (UTC) (F)     (DEG/KT/KT) (MB)    (FT)
BURNS HARBOR     2040   31     260/ 17/ 20 1019.6R
MICHIGAN CITY    2030   31     200/ 16/ 17   N/A

$$

INZ004-005-014>016-021>024-072200-
NORTH CENTRAL INDIANA

CITY           SKY/WX    TMP DP  RH WIND       PRES   REMARKS
ELKHART        SUNNY     32  21  64 W9        30.06S WCI  24
GOSHEN         PTSUNNY   33  21  61 W14       30.06S WCI  23
SOUTH BEND     PTSUNNY   29  21  72 SW13G20   30.07S WCI  19

$$

INZ006>009-017-018-025>027-072200-
NORTHEAST INDIANA

CITY           SKY/WX    TMP DP  RH WIND       PRES   REMARKS
ANGOLA *+      PTCLDY    34  21  60 SW12      30.04R WCI  25
FORT WAYNE     PTSUNNY   33  23  66 SW14      30.09R WCI  23
KENDALLVILLE + PTCLDY    32  23  69 SW15      30.05S WCI  22

$$

INZ028-029-035-036-043>045-051>053-072200-
WEST CENTRAL INDIANA

CITY           SKY/WX    TMP DP  RH WIND       PRES   REMARKS
CRAWFORDSVL +  CLOUDY    32  23  70 W9        30.14S WCI  24
GREENCASTLE +  CLOUDY    34  23  64 W7        30.15R WCI  28
LAFAYETTE      CLOUDY    33  24  69 W10       30.14R WCI  25
TERRE HAUTE    CLOUDY    36  20  52 W9        30.18R

$$

INZ030>032-037>040-046>048-054>057-064-065-072200-
CENTRAL INDIANA

CITY           SKY/WX    TMP DP  RH WIND       PRES   REMARKS
ANDERSON       PTSUNNY   36  21  55 SW6       30.12R
COLUMBUS       CLOUDY    37  25  60 SW6       30.15S
INDIANAPOLIS   CLOUDY    36  22  56 W13       30.13S
-EAGLE CREEK   CLOUDY    37  19  48 W8        30.12S
SHELBYVILLE    CLOUDY    37  23  56 W8        30.13R

$$

INZ033-034-041-042-049-050-058-059-072200-
EAST CENTRAL INDIANA

CITY           SKY/WX    TMP DP  RH WIND       PRES   REMARKS
MUNCIE         CLOUDY    36  20  52 SW12      30.11R

$$

INZ060-061-067>069-081>083-085>088-072200-
SOUTHWEST INDIANA

CITY           SKY/WX    TMP DP  RH WIND       PRES   REMARKS
EVANSVILLE     CLOUDY    42  25  50 NW7       30.20R
HUNTINGBURG *+ CLOUDY    39  21  48 NW5       30.18R

$$

INZ062-063-066-070>080-084-089>092-072200-
SOUTH CENTRAL AND SOUTHEAST INDIANA

CITY           SKY/WX    TMP DP  RH WIND       PRES   REMARKS
BLOOMINGTON    CLOUDY    36  23  59 W6        30.15R
MADISON *+     CLOUDY    37  19  48 CALM      30.16R
SEYMOUR +      CLOUDY    39  25  56 W3        30.15R

$$





USA.gov is the U.S. government's official web portal to all federal, state and local government web resources and services.